W2CS Weather Reports


time (UTC)temp
F
wind
direction
speed
knots
gust
knots
rain 1hr
in
rain 24hr
in
rain mn
in
humidity
%
barometer
mb
20260503230535 50 0 0.0 3.5 0.00 0.00 0.00 56 1008.6
20260503230047 51 246 0.0 2.6 0.00 0.00 0.00 60 1008.5
20260503225539 51 0 0.0 2.6 0.00 0.00 0.00 57 1008.3
20260503225039 51 314 0.0 2.6 0.00 0.00 0.00 56 1008.3
20260503224547 51 16 0.9 2.6 0.00 0.00 0.00 56 1008.2
20260503224039 51 258 0.9 3.5 0.00 0.00 0.00 55 1008.1
20260503223542 52 0 0.9 3.5 0.00 0.00 0.00 55 1008.1
20260503223050 52 359 0.9 7.0 0.00 0.00 0.00 54 1008.1
20260503222537 52 345 1.7 7.0 0.00 0.00 0.00 54 1008.0
20260503222038 52 0 0.0 2.6 0.00 0.00 0.00 56 1007.9
20260503221551 52 0 0.0 3.5 0.00 0.00 0.00 55 1007.8
20260503221041 52 12 0.9 4.3 0.00 0.00 0.00 50 1007.8
20260503220539 52 89 1.7 4.3 0.00 0.00 0.00 52 1007.6
20260503220108 53 0 0.9 3.5 0.00 0.00 0.00 53 1007.7
20260503215539 53 4 0.9 3.5 0.00 0.00 0.00 54 1007.6
20260503215039 53 347 0.9 3.5 0.00 0.00 0.00 51 1007.6
20260503214547 53 340 0.9 3.5 0.00 0.00 0.00 54 1007.5
20260503214041 53 22 0.9 3.5 0.00 0.00 0.00 57 1007.4
20260503213539 53 333 0.9 2.6 0.00 0.00 0.00 54 1007.3
20260503213050 53 333 0.9 3.5 0.00 0.00 0.00 56 1007.4
20260503212539 53 0 0.9 3.5 0.00 0.00 0.00 53 1007.3
20260503212041 53 330 0.9 3.5 0.00 0.00 0.00 52 1007.2
20260503211601 54 343 0.9 3.5 0.00 0.00 0.00 53 1007.2
20260503211042 54 326 0.9 3.5 0.00 0.00 0.00 53 1007.0
20260503210539 54 51 0.9 3.5 0.00 0.00 0.00 50 1007.0
20260503210046 55 65 0.9 3.5 0.00 0.00 0.00 54 1006.9
20260503205539 55 353 0.9 4.3 0.00 0.00 0.00 50 1007.0
20260503205039 55 14 0.9 4.3 0.00 0.00 0.00 53 1006.8
20260503204552 55 3 0.9 2.6 0.00 0.00 0.00 54 1006.7
20260503204038 55 351 0.9 2.6 0.00 0.00 0.00 50 1006.6
20260503203535 56 108 0.9 5.2 0.00 0.00 0.00 51 1006.6
20260503203049 56 353 1.7 5.2 0.00 0.00 0.00 50 1006.5
20260503202539 56 353 1.7 3.5 0.00 0.00 0.00 50 1006.5
20260503202039 56 359 0.9 3.5 0.00 0.00 0.00 52 1006.4
20260503201549 56 316 0.9 3.5 0.00 0.00 0.00 55 1006.3
20260503201039 55 331 0.9 3.5 0.00 0.00 0.00 53 1006.2
20260503200542 55 59 1.7 3.5 0.00 0.00 0.00 52 1006.1
20260503200049 53 293 0.9 3.5 0.00 0.00 0.00 57 1006.2
20260503195539 53 349 0.9 3.5 0.00 0.00 0.00 58 1006.2
20260503195039 52 359 0.9 6.1 0.00 0.00 0.00 57 1006.3
20260503194551 52 351 0.9 6.1 0.00 0.00 0.00 59 1006.2
20260503194040 52 316 0.9 2.6 0.00 0.00 0.00 59 1006.1
20260503193539 53 328 0.9 2.6 0.00 0.00 0.00 57 1006.2
20260503193054 53 328 0.9 3.5 0.00 0.00 0.00 53 1006.1
20260503192539 54 304 0.9 3.5 0.00 0.00 0.00 57 1006.1
20260503192043 54 293 0.9 2.6 0.00 0.00 0.00 55 1006.2
20260503191550 53 276 0.9 2.6 0.00 0.00 0.00 58 1006.2
20260503191039 53 313 0.0 3.5 0.00 0.00 0.00 57 1006.2
20260503190540 53 75 0.9 3.5 0.00 0.00 0.00 58 1006.2
20260503190046 54 258 0.9 3.5 0.00 0.00 0.00 57 1006.4
20260503185539 54 308 0.9 3.5 0.00 0.00 0.00 56 1006.4
20260503185039 54 325 0.9 3.5 0.00 0.00 0.00 60 1006.3
20260503184557 54 207 0.9 3.5 0.00 0.00 0.00 61 1006.2
20260503184039 54 327 0.9 3.5 0.00 0.00 0.00 58 1006.4
20260503183538 54 8 1.7 5.2 0.00 0.00 0.00 56 1006.4
20260503183054 55 0 1.7 5.2 0.00 0.00 0.00 55 1006.4
20260503182539 55 109 0.9 5.2 0.00 0.00 0.00 61 1006.4
20260503182043 54 297 0.9 6.1 0.00 0.00 0.00 60 1006.5
20260503181620 54 349 0.9 6.1 0.00 0.00 0.00 58 1006.4
20260503181039 54 14 0.9 5.2 0.00 0.00 0.00 60 1006.5
20260503180539 55 302 1.7 7.8 0.00 0.00 0.00 57 1006.5
20260503180124 55 230 0.9 7.8 0.00 0.00 0.00 60 1006.5
20260503175539 54 331 0.9 6.1 0.00 0.00 0.00 60 1006.3
20260503175039 54 337 0.9 6.1 0.00 0.00 0.00 61 1006.4
20260503174556 54 291 0.9 6.1 0.00 0.00 0.00 61 1006.4
20260503174039 54 314 0.9 5.2 0.00 0.00 0.00 61 1006.4
20260503173539 54 206 0.9 5.2 0.00 0.00 0.00 64 1006.4
20260503173056 53 315 0.9 5.2 0.00 0.00 0.00 66 1006.5
20260503172538 53 8 1.7 5.2 0.00 0.00 0.00 65 1006.5
20260503172038 52 345 0.9 4.3 0.00 0.00 0.00 69 1006.4
20260503171549 52 0 0.9 4.3 0.00 0.00 0.00 70 1006.4
20260503171038 52 309 0.9 3.5 0.00 0.00 0.00 71 1006.4
20260503170540 52 328 0.9 3.5 0.00 0.00 0.00 68 1006.5
20260503150539 51 296 0.9 3.5 0.00 0.00 0.00 72 1005.8
20260503131038 52 358 0.9 2.6 0.00 0.00 0.00 75 1005.5
20260503130538 52 28 0.9 2.6 0.00 0.00 0.00 74 1005.6
20260503120105 47 75 0.9 3.5 0.00 0.00 0.00 84 1006.0
20260503110542 41 0 0.0 2.6 0.00 0.00 0.00 91 1006.3
20260503100106 42 0 0.0 0.0 0.00 0.00 0.00 92 1006.4
20260503081546 42 0 0.0 1.7 0.00 0.00 0.00 92 1007.0
20260503081039 42 0 0.0 1.7 0.00 0.00 0.00 92 1007.0
20260503080541 42 0 0.0 1.7 0.00 0.00 0.00 92 1006.9
20260503072542 43 0 0.0 0.9 0.00 0.00 0.00 93 1007.5
20260503072039 43 0 0.0 0.9 0.00 0.00 0.00 92 1007.7
20260503071555 43 0 0.0 0.0 0.00 0.00 0.00 93 1007.5
20260503071043 44 0 0.0 0.9 0.00 0.00 0.00 93 1007.5
20260503070539 44 0 0.0 1.7 0.00 0.00 0.00 93 1007.6
20260503060112 47 0 0.0 0.0 0.00 0.00 0.00 93 1008.4
20260503055038 47 0 0.0 0.0 0.00 0.00 0.00 94 1008.4
20260503054552 47 0 0.0 0.9 0.00 0.00 0.00 94 1008.4
20260503054039 47 0 0.0 0.9 0.00 0.00 0.00 94 1008.5
20260503053539 47 0 0.0 0.0 0.00 0.00 0.00 94 1008.6
20260503053047 47 0 0.0 0.0 0.00 0.00 0.00 94 1009.0
20260503052539 47 0 0.0 0.0 0.00 0.00 0.00 94 1008.9
20260503052039 47 0 0.0 0.0 0.00 0.00 0.00 93 1008.9
20260503051549 47 0 0.0 0.0 0.00 0.00 0.00 93 1008.8
20260503051038 47 0 0.0 0.0 0.00 0.00 0.00 94 1008.8
20260503050539 47 0 0.0 0.0 0.00 0.00 0.00 93 1008.9
20260503050049 47 0 0.0 0.0 0.00 0.00 0.00 94 1009.0
20260503045538 47 0 0.0 0.0 0.00 0.00 0.00 94 1009.2
20260503045039 47 0 0.0 0.0 0.00 0.00 0.00 94 1009.3
20260503044618 48 0 0.0 0.0 0.00 0.00 0.00 94 1009.5
20260503044040 48 0 0.0 0.0 0.00 0.00 0.00 94 1009.5
20260503043539 48 0 0.0 0.0 0.00 0.00 0.00 94 1009.8
20260503043050 48 0 0.0 0.0 0.00 0.00 0.00 94 1009.9
20260503042539 48 0 0.0 0.0 0.00 0.00 0.00 94 1010.0
20260503042041 48 0 0.0 0.0 0.00 0.00 0.00 94 1009.9
20260503041553 48 0 0.0 0.0 0.00 0.00 0.00 93 1009.8
20260503041042 48 0 0.0 0.0 0.00 0.00 0.00 93 1009.9
20260503040538 48 0 0.0 0.0 0.00 0.00 0.00 93 1010.0
20260503040054 48 0 0.0 0.0 0.00 0.00 0.00 93 1009.8
20260503035539 48 0 0.0 0.0 0.00 0.00 0.00 93 1010.2
20260503035039 48 0 0.0 0.0 0.00 0.00 0.00 93 1010.2
20260503034546 48 0 0.0 0.0 0.00 0.00 0.00 93 1010.2
20260503034036 48 0 0.0 0.0 0.00 0.00 0.00 93 1010.1
20260503033538 48 0 0.0 0.0 0.00 0.00 0.00 93 1010.1
20260503033049 48 0 0.0 0.0 0.00 0.00 0.00 93 1010.0
20260503032539 48 0 0.0 0.0 0.00 0.00 0.00 93 1009.9
20260503032039 48 0 0.0 0.0 0.00 0.00 0.00 93 1009.8
20260503031547 48 0 0.0 0.0 0.00 0.00 0.00 93 1010.0
20260503031039 48 0 0.0 0.0 0.00 0.00 0.00 93 1009.9
20260503030538 47 0 0.0 0.0 0.00 0.00 0.00 93 1010.0
20260503030055 47 0 0.0 0.0 0.00 0.00 0.00 93 1009.9
20260503025539 48 0 0.0 0.0 0.00 0.00 0.00 93 1010.1
20260503025039 47 0 0.0 0.0 0.00 0.00 0.00 93 1010.0
20260503024558 47 0 0.0 0.0 0.00 0.00 0.00 93 1010.1
20260503024039 47 0 0.0 1.7 0.00 0.00 0.00 93 1010.1
20260503023538 48 0 0.0 1.7 0.00 0.00 0.00 93 1010.2
20260503023058 47 0 0.0 0.0 0.00 0.00 0.00 93 1010.3
20260503022535 48 0 0.0 0.0 0.00 0.00 0.00 93 1010.3
20260503022038 48 0 0.0 0.0 0.00 0.00 0.00 93 1010.6
20260503021549 48 0 0.0 0.0 0.00 0.00 0.00 93 1010.5
20260503021039 48 0 0.0 0.0 0.00 0.00 0.00 93 1010.5
20260503020539 48 0 0.0 0.0 0.00 0.00 0.00 93 1010.6
20260503020047 48 0 0.0 0.0 0.00 0.00 0.00 93 1010.6
20260503015540 48 0 0.0 0.0 0.00 0.00 0.00 93 1010.6
20260503015039 48 0 0.0 0.0 0.00 0.00 0.00 93 1010.5
20260503014554 48 0 0.0 0.9 0.00 0.00 0.00 93 1010.8
20260503014039 48 0 0.0 0.9 0.00 0.00 0.00 93 1010.8
20260503013541 48 0 0.0 0.9 0.00 0.00 0.00 93 1010.9
20260503013057 48 0 0.0 0.0 0.00 0.00 0.00 93 1011.0
20260503012543 48 0 0.0 0.0 0.00 0.00 0.00 93 1010.9
20260503012039 48 0 0.0 0.0 0.00 0.00 0.00 93 1010.8
20260503011553 48 0 0.0 0.0 0.00 0.00 0.00 93 1010.7
20260503011038 48 0 0.0 0.0 0.00 0.00 0.00 93 1010.6
20260503010538 48 0 0.0 0.0 0.00 0.00 0.00 93 1010.8
20260503010050 48 0 0.0 0.0 0.00 0.00 0.00 93 1010.8
20260503005536 48 0 0.0 0.9 0.00 0.00 0.00 93 1010.7
20260503005043 48 0 0.0 0.9 0.00 0.00 0.00 92 1010.5
20260503004555 48 0 0.0 0.9 0.00 0.00 0.00 92 1010.6
20260503004039 48 0 0.0 0.0 0.00 0.00 0.00 92 1010.7
20260503003539 48 0 0.0 0.0 0.00 0.00 0.00 92 1010.7
20260503003108 48 0 0.0 0.0 0.00 0.00 0.00 92 1010.7
20260503002541 48 0 0.0 0.9 0.00 0.00 0.00 92 1010.6
20260503002039 48 0 0.0 1.7 0.00 0.00 0.00 92 1010.5
20260503001550 48 0 0.0 1.7 0.00 0.00 0.00 92 1010.6
20260503001038 49 258 0.0 0.0 0.00 0.00 0.00 92 1010.9
20260503000535 49 0 0.0 0.0 0.00 0.00 0.00 92 1011.0
20260503000051 49 0 0.0 0.9 0.00 0.00 0.00 92 1010.9
20260502235538 49 0 0.0 0.9 0.00 0.00 0.00 92 1010.5
20260502235038 49 0 0.0 0.9 0.00 0.00 0.00 92 1010.4
20260502234602 49 0 0.0 0.0 0.00 0.00 0.00 91 1010.5
20260502234040 49 0 0.0 0.0 0.00 0.00 0.00 91 1010.7
20260502233539 49 0 0.0 1.7 0.00 0.00 0.00 91 1010.6
20260502233047 49 0 0.0 1.7 0.00 0.00 0.00 91 1010.7
20260502232539 49 258 0.0 1.7 0.00 0.00 0.00 91 1010.6
20260502232039 49 0 0.0 0.0 0.00 0.00 0.00 91 1011.0
20260502231554 49 0 0.0 0.0 0.00 0.00 0.00 91 1010.7
20260502231036 50 0 0.0 0.0 0.00 0.00 0.00 91 1010.6